Terminal Aerodrome Forecast
Issued by NWS

Home | Current Version | Previous Version | Text Only | Print | Product List | Glossary On
Versions: 1 2 3 4 5 6 7 8 9 10 11 12 13
000
FTUS45 KVEF 310300 AAA
TAFEED
TAF AMD
KEED 310304Z 3103/3124 23011KT P6SM SCT250
     FM310800 21006KT P6SM SCT250
     FM311800 21012KT P6SM SKC=

USA.gov is the U.S. government's official web portal to all federal, state and local government web resources and services.